Wind_Speed
9 9 9 9 9 9 8 7 7 6 5 5 6 6 6 7 9 10 11 12 13 14 15 15 14 13 13 14 15 16 17 16 17 16 14 15 18 19 16 15 14 11 11 12 12 14 16 16 15 13 12 11 9 8 6 3 3 7 9 10 12 12 8 5 9 19 26 28 26 23 21 19 17 16 17 18 17 14 10 11 13 13 13 17 19 20 21 22
10 9 9 9 9 10 10 9 7 7 6 5 5 6 6 7 8 9 11 12 13 14 15 15 15 15 14 13 14 15 16 17 17 14 15 20 21 19 16 14 13 11 10 9 9 11 12 13 13 13 13 12 10 9 7 4 4 8 11 11 12 8 9 14 17 22 24 25 24 22 21 18 14 14 16 16 16 15 11 13 15 13 14 18 20 21 21 21
10 10 10 9 9 10 10 10 9 8 7 6 6 5 6 7 8 9 10 12 13 14 14 15 16 16 15 14 13 13 14 17 16 15 19 22 20 19 17 14 12 10 9 8 9 11 12 12 12 13 14 13 11 9 7 5 5 8 11 12 11 6 12 10 11 19 22 23 21 20 20 17 14 13 13 13 14 13 11 13 15 14 15 18 21 21 21 21
11 11 11 11 11 11 10 10 10 9 8 8 7 6 6 7 8 9 10 11 12 13 14 14 15 16 16 15 13 12 13 15 16 18 21 21 20 20 18 14 12 11 11 11 12 15 16 16 14 14 14 13 12 10 8 5 6 8 10 11 8 8 9 6 7 17 22 22 19 19 17 15 15 12 11 11 12 13 13 14 12 11 13 17 20 21 20 21
12 13 13 13 13 13 12 12 11 10 9 8 8 7 7 7 8 9 10 11 12 12 13 14 15 16 17 16 14 13 12 13 15 20 22 20 20 21 18 15 13 12 13 13 14 16 18 18 17 16 16 14 12 11 9 7 7 8 9 10 8 9 7 5 6 16 21 21 17 17 15 15 14 10 10 10 9 11 16 17 10 8 11 14 18 19 19 20
13 14 14 14 14 14 14 14 13 12 11 10 9 8 8 8 8 8 9 10 11 12 12 14 15 16 16 16 16 14 12 11 14 20 21 19 21 21 19 18 16 15 15 13 13 15 17 19 20 19 17 15 12 11 10 8 7 7 8 10 9 7 7 3 7 15 20 18 15 16 14 14 13 10 11 10 10 13 18 15 8 10 14 14 15 16 18 19
13 14 15 15 14 14 14 14 14 13 12 11 10 9 8 8 9 9 9 9 10 11 12 13 15 16 16 16 16 15 14 12 13 18 20 20 21 21 20 20 19 18 16 12 10 12 17 20 20 19 17 14 13 11 9 8 7 7 8 9 9 7 7 5 10 16 18 15 13 13 13 13 12 10 11 11 13 16 18 13 9 14 16 16 15 15 17 19
14 15 16 16 15 14 13 14 14 14 13 12 12 10 9 9 9 8 9 9 9 10 11 13 15 16 17 17 17 16 15 15 13 15 20 21 21 21 22 22 22 19 15 11 8 9 15 19 19 20 17 14 13 11 9 7 6 7 7 7 8 6 7 8 14 18 16 14 12 12 13 14 12 11 11 13 16 17 17 12 10 15 17 16 15 15 17 18
14 15 16 17 16 15 13 13 13 14 13 12 12 11 10 10 9 8 8 9 9 10 11 13 14 16 18 17 17 16 16 16 14 14 19 22 22 22 23 23 22 19 15 11 8 9 14 18 20 19 16 15 13 10 10 7 5 6 6 6 7 6 6 9 14 18 16 14 13 11 12 14 13 12 13 15 17 16 16 12 11 16 16 16 16 16 17 18
15 16 16 17 17 16 15 13 13 13 13 12 12 12 11 10 10 9 8 8 9 10 11 12 14 16 17 18 17 17 17 17 15 15 19 22 22 22 23 22 21 19 15 11 9 9 13 18 20 17 15 15 13 10 10 7 6 7 5 5 5 5 6 9 11 15 16 14 13 12 11 12 13 13 14 16 17 16 16 14 14 17 17 16 16 16 18 18
16 17 17 17 18 17 16 15 14 14 14 14 13 13 12 11 10 10 9 8 9 10 11 11 13 15 17 18 17 17 18 18 16 16 19 22 23 22 22 21 21 20 16 12 9 9 13 19 20 17 16 15 12 10 10 8 8 8 6 4 5 5 7 10 11 13 16 14 14 13 11 11 13 14 14 14 16 16 15 15 17 20 18 16 17 17 18 19
16 17 17 17 18 17 17 16 15 15 15 15 15 14 13 12 11 10 9 8 9 10 11 11 12 14 17 17 17 18 19 18 17 17 19 22 23 23 23 22 23 22 18 13 9 9 14 20 21 19 18 15 12 10 10 11 10 8 7 5 4 5 7 10 11 13 15 16 15 13 12 13 15 15 14 13 15 16 17 18 20 21 20 18 18 18 18 19
15 16 16 17 17 17 17 16 16 16 16 16 16 15 14 13 12 11 10 9 8 9 10 11 11 14 16 16 17 18 19 18 18 17 18 21 23 25 25 24 25 25 22 17 12 10 14 21 22 21 18 14 12 10 11 12 11 8 7 6 4 5 7 8 11 13 15 16 17 16 15 15 17 17 15 14 15 18 20 20 22 22 21 19 19 19 19 19
14 14 15 16 17 17 17 16 16 16 15 15 15 15 14 13 12 11 10 8 8 8 9 11 11 12 15 16 17 18 18 19 18 17 18 19 22 24 25 26 26 27 25 21 17 14 17 23 24 20 16 14 13 11 11 12 11 9 7 6 6 5 6 8 10 13 15 17 18 18 17 16 19 19 16 16 15 18 22 23 23 23 22 20 20 20 19 19
15 13 14 15 16 16 16 16 15 13 13 12 13 13 13 12 12 11 9 7 7 7 9 10 11 12 14 15 17 19 19 19 19 18 17 18 20 23 25 26 27 28 26 21 19 20 23 26 24 19 16 15 13 12 12 11 11 11 8 7 9 7 7 8 9 13 15 17 19 19 17 17 20 19 17 17 16 17 21 24 24 23 22 21 21 21 20 19
15 13 13 14 15 15 14 14 13 11 10 10 11 12 13 12 12 10 8 6 6 6 8 10 10 11 13 15 18 19 20 21 21 19 18 18 20 22 25 26 27 28 26 22 21 24 27 27 24 21 18 16 13 12 12 11 10 12 10 8 9 9 7 8 9 12 16 17 20 21 18 17 20 20 18 18 17 17 20 23 24 24 23 22 22 22 21 20
15 13 13 13 13 13 12 11 10 9 9 10 11 12 12 12 11 9 7 5 5 6 8 10 10 10 12 15 18 20 22 23 22 21 20 20 19 21 25 27 27 28 27 23 23 26 28 28 25 21 19 17 14 14 13 11 11 13 12 8 9 10 7 7 9 11 16 19 20 22 20 17 19 19 19 19 20 18 19 22 24 25 24 23 22 22 21 20
14 13 13 12 11 10 10 9 8 8 9 10 10 11 11 11 10 8 7 5 5 7 8 9 10 10 11 14 17 20 22 23 23 23 22 21 20 20 24 26 26 28 28 25 26 28 28 27 25 21 20 18 16 17 13 10 13 16 14 9 7 9 7 7 8 8 16 19 20 23 21 18 17 19 20 20 21 20 19 20 22 24 24 23 23 22 21 20
14 13 13 12 10 9 8 8 7 8 8 9 10 10 10 10 10 8 7 5 5 8 8 8 10 11 11 14 17 19 21 22 22 22 22 22 22 21 22 24 25 27 28 27 28 29 29 27 24 22 22 21 18 17 12 8 11 14 14 10 6 7 8 7 6 6 13 18 20 22 22 19 17 19 21 21 21 21 20 20 21 23 24 23 23 22 21 20
13 13 12 11 9 7 7 7 7 7 8 8 9 10 10 9 8 7 7 4 4 9 10 9 11 13 13 14 17 20 21 20 19 20 20 21 23 22 22 23 25 27 27 28 30 31 29 26 25 25 23 21 17 15 11 5 6 11 13 10 5 5 6 7 6 6 11 16 18 21 22 20 17 17 20 21 21 22 22 22 21 22 24 24 23 23 22 20
13 12 11 10 8 6 7 7 6 6 6 7 9 10 9 8 6 6 6 4 4 7 10 9 10 12 13 15 19 22 21 19 18 17 18 19 21 23 23 24 27 29 27 27 30 32 29 26 26 24 21 18 15 14 11 5 5 9 11 11 7 5 5 6 6 5 10 14 16 20 21 20 18 16 18 21 22 22 23 23 22 23 24 24 23 23 22 21
12 11 9 8 6 6 6 6 5 4 5 6 9 9 9 9 7 6 4 2 4 4 6 9 10 12 14 15 20 22 20 19 18 16 17 18 20 22 24 26 27 30 29 28 31 32 29 29 26 21 19 18 16 15 12 8 7 7 9 12 10 7 7 5 5 5 8 11 13 17 19 18 17 16 16 20 23 22 24 24 23 23 24 24 23 23 23 23
11 10 8 7 6 6 5 4 3 3 5 7 9 9 8 9 8 7 6 2 3 1 4 8 11 13 14 14 19 21 19 18 18 16 15 16 19 22 24 26 27 29 30 30 33 32 27 28 26 19 19 20 17 16 14 11 10 9 9 11 10 9 7 5 5 6 7 9 10 13 16 17 18 17 16 20 24 23 24 25 24 23 23 23 23 23 23 24
11 9 7 6 5 5 3 2 1 2 4 6 9 9 8 8 8 8 8 4 2 1 4 10 12 13 13 13 18 20 17 17 16 14 14 15 18 21 22 24 27 29 31 31 33 32 24 23 25 21 20 22 19 16 16 14 12 11 10 8 7 7 7 6 6 7 9 8 9 13 15 18 20 19 18 20 22 24 25 25 25 24 23 22 22 23 23 24
10 8 6 5 5 3 2 2 1 2 3 6 8 8 7 7 8 9 8 6 4 5 9 13 13 13 12 12 16 19 16 15 15 12 13 15 17 20 21 24 27 29 32 32 30 29 22 18 22 24 22 23 21 18 18 16 12 12 12 9 7 5 5 7 7 8 11 9 10 14 13 14 20 21 19 20 21 23 26 25 24 24 23 24 23 24 25 25
9 7 5 5 4 2 2 2 1 1 3 5 5 5 5 6 7 8 8 7 7 10 12 13 12 12 11 10 14 17 15 15 15 12 12 15 15 17 21 25 29 29 31 32 27 24 21 16 18 24 25 24 22 20 20 17 13 12 11 8 9 9 7 6 7 9 11 9 10 14 12 8 17 23 21 21 22 24 26 25 24 24 23 24 24 24 26 27
8 6 4 4 2 2 3 4 2 0 2 3 3 4 4 5 6 6 6 4 7 9 11 12 11 11 9 10 14 14 13 15 16 13 12 15 15 16 21 25 28 29 30 31 23 19 24 21 17 21 26 26 25 22 21 19 14 13 12 7 7 9 7 6 7 9 10 8 8 14 16 7 11 23 24 23 24 25 26 26 24 24 24 24 23 24 26 27
6 5 4 2 1 2 4 4 2 0 1 2 3 4 4 4 5 5 3 2 5 5 9 12 10 11 9 10 15 10 7 13 17 15 13 14 13 14 19 23 26 26 27 28 19 16 23 24 19 19 23 27 29 26 22 19 15 14 13 9 5 4 3 4 7 9 10 8 7 14 18 8 6 17 24 26 27 28 27 27 26 25 25 25 23 24 25 24
5 4 3 2 2 2 3 3 2 2 3 4 4 4 4 4 5 5 4 3 5 3 8 11 9 11 9 10 15 8 5 12 16 16 16 15 13 13 17 20 23 23 21 22 18 15 18 20 21 20 20 24 28 27 25 21 18 16 12 7 4 3 2 5 8 9 8 7 7 13 17 9 4 9 22 27 28 31 31 29 29 27 25 25 24 24 24 22
4 3 2 1 1 2 2 3 5 6 7 6 5 5 6 7 5 2 2 3 5 5 8 8 7 9 9 12 14 7 8 13 13 15 17 16 13 12 13 15 20 20 17 18 20 18 17 16 19 22 22 21 21 25 26 21 19 19 15 9 4 2 2 5 6 7 6 5 5 9 15 12 3 6 21 28 28 29 32 32 32 32 29 26 25 24 23 22
3 2 1 2 4 6 7 9 10 9 8 6 5 6 7 8 7 3 2 4 5 8 8 6 7 8 10 15 14 10 12 12 9 13 17 17 16 13 12 13 16 18 15 15 18 20 21 19 19 21 23 21 17 21 23 18 17 18 16 14 6 5 4 4 5 7 5 2 1 2 12 15 7 5 13 24 27 26 29 34 33 32 32 30 26 24 24 23
2 2 5 8 10 12 13 13 11 9 7 5 4 5 5 5 7 7 4 4 4 5 5 6 8 9 12 14 12 11 13 9 7 12 16 17 17 13 11 13 14 13 11 13 13 15 20 23 22 19 20 21 18 18 19 16 17 16 14 14 8 5 3 3 3 4 4 3 1 1 8 12 12 9 8 14 22 24 27 32 33 31 31 32 29 26 24 23
3 7 10 13 14 15 14 13 11 9 7 6 5 5 5 3 5 7 6 3 2 3 6 8 9 11 12 12 11 9 10 8 7 9 13 16 16 14 12 11 12 10 7 10 12 9 12 19 24 21 19 21 21 19 19 18 19 19 17 16 11 5 3 3 3 3 3 5 6 4 7 8 9 12 11 11 16 20 23 28 33 33 30 31 32 30 26 24
7 11 14 14 14 14 14 13 11 9 8 7 7 8 8 6 5 7 8 5 2 5 8 9 10 11 10 11 11 9 9 9 7 7 11 14 15 15 14 11 11 11 7 8 10 9 8 11 19 23 20 22 25 21 19 19 19 19 19 17 13 10 5 2 4 3 2 4 3 4 6 5 5 7 10 10 11 16 19 23 28 33 33 31 32 33 30 26
10 14 14 13 13 13 13 12 10 9 9 9 9 9 9 7 6 8 8 7 5 7 8 9 11 11 10 9 11 11 9 8 7 7 10 13 14 14 14 12 12 13 10 8 7 7 8 6 10 19 21 20 24 24 19 16 17 20 21 18 15 15 10 3 3 3 5 6 4 5 5 5 6 8 10 8 7 12 16 19 22 28 35 36 33 33 32 29
13 14 12 11 12 12 12 11 10 9 10 10 11 12 12 9 8 9 8 7 8 9 9 9 10 10 10 9 10 11 10 8 7 8 9 11 13 13 13 13 12 13 13 11 7 4 6 5 6 14 21 19 18 22 22 18 16 19 22 20 19 20 15 6 2 4 5 4 3 6 7 7 7 8 10 8 6 10 13 16 18 21 30 37 34 32 32 30
14 13 11 10 11 11 10 10 9 10 10 9 11 12 11 11 10 9 9 7 7 9 9 8 8 9 10 9 9 11 10 7 7 10 11 9 8 10 11 10 11 11 13 15 12 7 5 6 7 12 19 20 15 17 22 20 18 18 21 23 22 19 16 10 4 4 5 4 3 6 9 8 6 6 8 8 7 9 11 11 14 16 23 33 35 32 30 29
14 12 10 10 11 10 9 9 9 10 10 10 13 13 11 11 10 8 8 7 5 5 5 5 7 9 10 10 8 10 11 8 8 11 13 10 5 6 8 6 8 9 9 12 14 10 6 6 8 12 16 20 19 16 19 23 22 18 19 23 21 14 12 11 6 3 6 4 2 5 7 9 11 11 9 7 7 10 11 9 10 12 18 30 36 34 30 28
13 12 10 11 10 9 8 8 9 9 9 10 12 12 11 12 11 9 8 6 4 3 4 5 8 9 9 9 9 11 12 10 9 11 12 10 6 6 7 5 4 7 8 10 13 11 9 6 6 10 13 18 22 21 21 24 25 20 16 22 24 15 11 14 10 6 7 4 2 4 4 7 14 16 13 9 7 10 12 9 9 9 13 26 35 34 29 27
12 11 11 10 9 8 7 8 9 9 9 10 10 9 10 11 10 10 8 7 5 3 2 4 9 11 9 9 11 12 12 9 10 11 11 12 8 7 8 6 2 4 6 9 12 12 13 10 5 7 10 16 23 26 24 22 25 25 20 22 27 20 13 15 13 9 6 3 2 2 2 5 11 15 16 11 6 9 13 10 9 9 12 22 31 32 30 27
13 11 10 10 9 8 7 7 9 9 10 10 9 8 8 8 8 8 8 7 6 5 4 3 8 11 9 10 12 12 11 10 12 12 11 14 11 6 6 5 3 3 5 8 10 10 13 14 11 7 7 13 20 25 25 21 21 26 25 24 27 23 17 13 9 9 8 4 3 3 1 3 8 13 16 12 7 9 13 11 11 10 12 19 27 32 33 31
13 10 9 9 8 7 6 7 9 9 10 10 9 8 7 6 6 6 6 6 6 5 5 4 7 10 10 11 11 10 11 12 13 12 11 15 12 6 6 5 3 3 4 7 9 9 9 11 13 12 8 10 15 20 24 21 20 24 26 23 24 25 24 17 9 11 11 7 5 5 2 2 6 11 13 13 10 10 12 12 12 11 11 15 21 28 32 33
12 9 8 7 6 6 6 7 8 8 8 8 8 7 7 6 6 5 4 4 4 3 3 4 5 8 9 11 10 10 12 12 12 12 12 15 14 9 7 5 2 4 2 6 7 7 8 9 10 9 6 8 13 17 22 22 21 25 27 24 24 26 27 21 16 15 15 12 8 5 2 3 7 10 12 14 13 11 12 14 14 12 12 13 17 22 26 29
12 9 7 5 5 5 6 7 8 8 7 7 7 6 5 5 5 4 3 3 2 1 1 2 3 5 8 9 9 11 12 10 10 12 12 13 13 10 7 5 2 3 2 4 6 6 8 9 8 6 5 7 10 13 18 22 24 27 29 27 25 28 27 21 19 18 16 16 15 7 3 5 8 9 11 14 15 13 13 14 14 14 14 13 14 17 20 23
11 8 7 6 5 5 6 6 7 7 7 6 6 6 4 3 4 4 4 3 3 3 2 2 3 4 6 8 8 10 10 8 10 13 11 10 10 10 7 5 3 3 3 1 5 7 7 8 9 9 7 6 7 9 14 19 23 25 27 27 26 28 26 20 19 18 14 16 18 11 5 7 9 9 11 14 16 15 14 14 14 15 15 14 15 14 16 19
10 9 8 6 5 5 5 5 6 6 6 5 5 5 4 3 4 4 3 3 4 3 3 3 3 2 4 6 6 9 9 8 10 12 11 9 8 8 7 5 5 5 4 1 2 5 7 8 11 12 11 10 10 12 15 18 20 22 23 24 26 28 26 21 20 20 16 16 19 16 13 11 10 10 11 14 17 17 15 13 13 14 14 14 15 14 14 15
11 9 8 6 5 5 4 4 4 5 5 5 4 4 3 3 4 4 4 4 4 3 2 3 3 2 2 4 5 8 8 8 10 11 11 9 7 6 5 5 6 6 5 1 3 2 4 6 9 11 12 13 12 15 20 20 18 19 20 21 23 25 25 22 20 19 18 16 16 19 19 15 11 9 10 13 17 18 15 12 11 12 12 12 13 12 12 11
11 10 9 7 5 4 4 4 4 3 4 5 4 3 3 2 2 3 4 3 2 2 2 1 0 1 2 3 5 8 8 8 10 11 10 9 7 6 5 5 6 5 6 3 4 3 4 6 6 7 9 12 13 14 20 21 18 17 19 20 21 22 22 21 19 18 19 17 15 17 18 15 11 9 9 12 16 16 14 12 11 11 11 11 11 11 11 9
11 10 9 8 6 5 5 5 4 3 3 4 4 2 1 0 2 3 2 1 2 1 1 1 1 1 4 4 3 7 8 9 10 10 9 9 7 6 6 5 6 6 8 7 5 5 5 8 9 7 6 9 12 14 17 19 19 19 20 20 19 19 21 20 17 15 17 18 16 15 15 14 12 8 7 10 14 16 15 13 11 10 9 9 10 11 12 11
11 11 9 8 6 6 6 5 4 4 4 2 2 3 2 1 1 3 1 0 0 1 2 2 2 4 4 2 1 5 8 7 8 8 7 7 7 6 5 4 5 7 10 11 10 8 5 6 7 8 7 6 8 12 15 15 16 20 22 21 18 18 19 18 14 12 14 18 17 14 14 16 13 9 8 11 15 17 17 14 12 10 9 9 9 10 12 13
11 11 9 8 8 7 7 6 5 4 4 3 2 3 3 1 1 1 1 0 2 2 2 3 3 5 5 1 2 7 9 8 6 6 5 5 6 5 4 3 2 5 8 10 14 15 10 4 3 3 6 8 6 9 12 12 13 16 18 20 20 19 18 16 14 12 13 16 16 15 16 17 16 14 13 13 16 18 17 14 12 10 9 8 7 7 10 12
13 11 10 9 9 9 9 8 6 5 4 4 3 3 3 3 2 1 3 2 3 2 2 4 4 5 4 3 5 7 3 5 5 6 5 5 6 5 4 4 3 1 4 8 13 18 19 14 8 4 1 7 8 7 9 11 10 6 7 11 17 19 18 16 16 14 13 13 14 15 17 17 18 19 17 17 19 20 17 15 12 10 9 7 5 5 7 11
Wind_Direction
335 334 332 328 326 324 322 320 317 313 303 291 281 271 259 248 243 238 235 233 230 228 226 225 226 229 230 230 228 226 224 218 213 207 197 199 205 210 213 215 221 214 215 219 209 207 206 203 204 202 192 181 188 197 185 148 74 44 29 23 13 0 4 58 125 143 155 167 175 174 167 166 167 161 157 157 161 165 155 146 150 155 157 162 174 172 161 159
332 332 331 327 324 320 319 317 314 311 306 299 285 272 260 249 241 237 235 233 230 227 225 223 224 227 228 230 228 227 224 220 215 201 199 206 206 210 212 215 219 212 212 212 203 202 204 205 203 197 190 183 186 189 174 133 73 51 38 32 22 28 94 111 132 145 158 172 173 169 166 164 167 165 162 163 164 164 159 154 155 157 160 166 173 170 163 162
332 331 330 328 325 321 318 317 315 312 306 301 290 276 263 253 243 237 234 233 230 226 223 221 223 224 225 227 227 227 223 221 213 197 205 209 205 210 210 212 214 207 200 188 183 185 187 192 195 195 188 183 187 182 162 120 80 57 46 40 33 89 119 107 149 161 164 172 171 166 165 161 163 166 164 166 164 161 156 155 157 157 164 170 171 170 167 164
330 329 327 325 323 320 318 316 316 315 310 302 292 281 269 260 250 242 235 233 232 227 222 219 220 222 223 224 224 225 222 220 211 202 211 208 203 209 207 206 207 203 200 191 183 181 182 181 182 191 188 186 187 172 150 118 93 69 52 48 50 131 134 73 146 169 168 171 172 167 166 160 161 164 164 169 165 156 150 152 156 157 167 172 170 171 169 163
324 322 320 319 317 315 313 312 312 313 311 306 296 286 274 265 258 250 241 235 233 228 223 218 219 220 221 221 220 222 220 219 209 206 212 207 203 206 202 202 200 201 205 203 195 187 184 179 177 182 186 189 183 162 143 124 104 81 62 56 66 143 148 59 126 169 170 168 170 170 169 161 159 160 163 167 157 151 150 150 159 162 167 175 172 172 168 163
318 316 314 313 310 309 307 306 306 307 306 304 299 293 281 270 262 256 249 241 235 230 223 218 218 218 219 219 217 217 216 214 206 208 212 206 204 203 198 199 197 200 207 208 205 194 186 182 180 179 185 186 172 159 148 136 120 96 76 67 68 129 149 82 130 162 167 168 172 172 171 163 159 156 156 157 144 150 153 148 158 159 160 175 175 170 165 161
315 314 313 310 307 304 303 302 302 302 301 299 297 295 287 276 267 260 254 248 240 232 225 218 216 216 217 217 215 215 214 212 206 207 209 206 204 199 195 197 196 200 207 207 208 201 191 187 183 178 183 180 163 162 155 141 127 105 85 77 69 98 134 131 144 155 161 169 175 173 173 166 160 153 151 151 146 153 158 150 149 152 157 172 175 168 161 159
311 314 314 312 309 304 300 299 299 299 299 297 295 293 287 281 273 265 257 251 245 237 228 219 214 214 214 214 213 213 214 212 207 206 205 205 204 197 195 198 195 199 206 203 204 204 196 190 183 178 178 169 160 162 157 146 132 109 91 87 73 82 119 133 152 160 162 167 174 175 176 171 162 154 151 153 151 156 165 162 149 151 158 168 171 166 160 159
306 311 314 314 311 307 302 298 297 298 298 297 294 292 287 282 277 270 260 251 246 242 232 222 215 212 211 211 211 211 212 211 206 202 202 202 202 198 197 199 198 199 203 200 195 196 197 190 182 176 169 160 158 162 159 151 139 123 106 101 83 87 122 132 153 168 174 173 174 175 175 175 169 157 153 157 155 158 170 171 157 154 160 168 168 164 159 159
302 307 312 315 313 308 304 301 299 296 296 295 293 291 287 282 277 271 264 252 244 241 236 226 217 212 210 208 208 209 210 209 205 200 198 199 199 198 197 197 198 201 201 198 190 189 194 185 178 174 164 158 160 165 164 152 146 141 124 118 102 99 141 147 152 170 183 183 181 183 179 178 178 164 155 159 158 159 168 168 162 157 161 169 166 162 160 159
298 302 307 313 314 309 304 302 300 297 295 293 291 290 288 284 279 271 264 253 243 239 236 229 219 213 209 207 206 208 208 208 205 199 195 195 195 196 196 194 195 200 200 194 185 185 189 180 173 172 165 161 166 173 173 164 154 146 131 130 125 123 152 162 163 173 184 188 188 190 190 188 188 175 161 162 161 160 164 164 162 158 162 171 166 164 163 162
297 297 301 308 312 309 303 301 300 298 295 292 291 289 287 286 282 275 266 255 245 238 235 232 223 214 209 205 205 206 205 206 205 199 195 194 193 193 193 191 191 195 196 192 183 183 185 178 172 170 167 165 174 180 180 176 162 149 143 141 148 152 159 171 177 181 186 192 193 191 199 202 196 185 171 170 170 165 163 163 164 161 164 172 169 167 167 164
298 295 297 302 307 307 302 300 299 297 295 293 291 289 288 287 286 281 273 261 249 240 236 234 228 217 208 204 205 204 203 204 204 199 194 194 193 192 190 189 190 190 191 189 184 184 182 176 172 169 168 172 180 180 179 179 168 161 159 153 168 173 170 181 186 190 190 194 196 192 200 205 197 190 177 174 178 171 165 164 167 165 166 173 172 171 171 167
301 296 294 298 302 303 300 299 299 298 296 293 291 291 292 291 290 288 280 268 253 242 235 233 231 219 208 205 204 202 202 203 203 199 194 193 193 193 191 189 190 190 189 186 179 177 176 173 171 169 171 179 181 178 179 180 175 173 172 172 185 189 187 188 189 194 195 196 197 195 203 205 195 192 181 174 178 175 170 167 169 169 168 173 174 174 174 170
306 300 295 297 301 302 300 300 302 302 298 295 293 294 296 297 296 294 288 275 255 242 233 232 231 220 209 205 202 199 200 202 201 197 193 192 191 192 192 191 192 191 188 183 174 169 169 172 173 172 177 182 180 179 179 180 181 179 182 193 192 194 197 192 192 198 199 199 197 197 205 206 198 195 185 175 175 176 173 171 171 171 171 174 176 176 175 173
311 305 301 301 303 303 301 302 305 305 300 297 297 297 299 300 299 298 295 278 250 236 229 229 228 218 208 203 200 197 197 199 198 193 191 191 190 189 191 194 195 193 189 182 174 169 170 174 177 177 180 181 181 180 176 176 185 187 192 200 194 193 194 193 200 204 203 202 197 196 203 208 203 199 190 180 178 177 174 174 174 173 174 177 178 179 177 176
315 310 306 306 306 305 303 302 303 303 300 300 302 301 301 302 302 301 294 272 236 223 220 224 224 213 205 201 199 197 196 198 196 191 191 192 191 189 191 195 196 195 190 182 175 172 173 177 179 180 182 182 183 179 176 179 186 192 195 197 197 200 200 199 204 206 205 205 200 198 203 209 207 203 197 186 182 180 172 174 178 177 177 179 181 181 180 179
316 312 309 308 307 306 301 296 296 297 298 303 305 308 310 310 309 304 293 270 230 218 216 220 217 203 199 199 197 196 195 196 197 195 196 195 192 192 193 195 196 195 191 183 178 175 176 180 181 183 184 185 189 183 182 195 194 193 190 187 197 203 210 210 211 212 204 203 202 201 204 209 209 207 204 194 186 184 176 172 178 182 181 181 184 185 182 181
317 316 312 310 310 308 298 289 290 291 296 306 314 321 325 323 321 318 310 287 230 219 217 214 206 194 192 195 191 191 191 192 196 198 201 201 196 194 194 194 196 196 193 185 180 178 179 183 185 187 186 189 193 186 184 205 206 200 190 183 196 202 208 211 214 215 200 199 201 201 202 206 210 210 206 199 189 187 184 177 178 184 185 184 185 187 185 182
319 320 317 314 314 311 296 286 285 287 298 314 326 335 338 334 329 323 317 299 234 215 211 206 202 196 191 189 185 184 185 186 190 195 202 204 199 197 196 194 194 193 194 189 182 180 182 188 191 189 186 189 190 185 187 197 202 201 191 186 191 192 206 217 217 209 198 200 200 200 202 205 210 213 209 202 194 193 192 184 181 185 186 185 185 187 187 183
322 324 319 316 316 309 293 284 284 290 309 328 339 343 343 347 343 326 315 279 235 213 207 207 202 197 192 186 180 179 180 181 186 194 201 202 198 197 196 196 193 190 191 191 185 182 186 195 196 188 184 187 189 189 191 183 177 191 195 197 194 192 212 223 225 217 204 204 200 200 203 206 212 214 209 206 202 199 195 188 185 186 186 186 185 187 187 184
325 324 317 314 313 302 286 281 284 300 331 344 348 350 353 3 4 355 1 215 221 211 202 202 195 194 193 186 179 177 178 181 186 193 201 199 193 194 196 196 194 189 186 187 186 185 192 200 195 184 183 188 192 195 192 182 174 179 195 202 205 214 221 221 227 227 212 207 202 200 202 207 217 218 210 210 208 201 193 190 188 186 186 186 185 186 187 188
326 322 314 310 306 297 282 277 288 322 347 353 355 359 4 10 14 18 33 116 199 206 184 186 183 187 190 185 179 176 177 183 187 191 195 192 188 191 195 195 192 188 185 186 188 188 195 202 194 182 184 191 196 200 198 193 189 190 195 203 213 218 214 209 210 202 197 204 203 199 201 209 221 223 214 213 211 201 193 191 189 186 185 187 186 185 188 192
324 319 312 309 304 295 274 254 292 334 349 359 4 7 11 15 20 23 28 60 131 141 160 168 171 176 182 180 176 174 175 183 186 187 187 182 183 188 192 194 189 186 187 188 190 192 198 203 194 184 186 194 201 204 204 204 207 206 195 195 210 213 208 210 205 187 182 195 198 194 200 212 221 224 216 212 212 205 197 191 188 186 184 186 186 186 189 194
323 320 315 311 304 289 249 208 280 338 351 2 9 13 19 27 28 25 28 48 82 115 142 153 160 168 175 172 173 176 175 181 184 185 185 177 179 186 186 186 185 186 188 188 189 193 198 201 196 191 191 197 206 209 207 210 217 215 206 208 215 207 205 209 201 182 181 198 202 190 192 209 218 222 220 215 212 205 198 193 189 187 185 187 187 184 188 193
324 323 320 312 304 267 218 207 236 343 349 355 11 20 31 38 31 34 39 55 93 119 137 147 152 160 169 167 173 178 175 180 185 182 182 173 174 185 182 180 183 186 189 188 190 195 197 196 195 196 198 202 209 212 211 213 221 221 216 228 234 223 222 225 211 187 187 209 211 195 189 199 213 218 221 219 216 208 200 193 188 186 187 188 186 183 184 190
328 328 323 314 303 228 212 208 205 310 335 346 23 37 47 46 37 48 44 64 110 121 138 146 147 151 155 162 168 172 176 186 187 178 179 175 172 182 182 180 183 185 188 189 192 200 200 197 196 199 203 208 214 214 211 214 224 224 217 231 245 228 236 255 228 202 204 214 203 200 202 198 215 220 220 217 214 211 205 198 191 187 188 185 181 180 180 184
331 330 328 315 268 219 209 202 198 213 4 50 70 52 52 46 45 59 43 120 129 121 147 147 145 144 141 156 161 159 179 187 183 175 175 177 175 181 184 184 183 184 190 192 193 204 205 203 203 202 205 214 216 212 211 217 227 229 225 232 224 193 218 238 217 213 217 210 188 202 206 206 243 229 220 215 213 211 205 203 201 195 189 185 178 174 173 175
337 333 327 304 249 224 212 199 158 116 107 95 85 61 55 47 43 51 50 117 129 124 153 153 152 146 138 158 162 157 174 175 177 174 171 177 178 179 188 191 187 186 193 199 199 205 207 208 211 209 210 217 216 215 219 225 230 229 224 221 193 169 190 200 204 208 212 212 203 204 203 206 258 220 204 206 213 210 199 198 207 206 196 190 183 175 170 169
346 339 322 313 189 153 141 125 108 109 109 100 91 72 63 53 39 34 62 105 140 141 147 157 164 153 145 160 164 161 165 165 174 177 172 177 178 176 185 192 192 195 205 211 212 213 211 209 214 215 216 217 215 219 223 228 231 228 223 214 176 130 168 179 195 195 197 222 233 220 211 209 235 202 197 205 215 211 198 194 204 210 205 198 192 184 177 172
358 354 29 98 110 110 106 105 104 105 103 95 86 67 59 55 42 30 71 96 139 142 141 157 167 160 155 160 158 148 152 154 166 179 177 179 181 178 178 180 186 195 209 219 220 222 220 215 215 215 217 217 213 216 219 221 223 223 223 218 185 104 120 140 176 191 199 203 63 241 214 210 222 214 204 214 219 216 206 200 202 207 210 206 201 195 186 178
37 93 115 110 108 106 102 99 96 93 86 74 63 51 49 59 47 43 69 97 129 139 156 173 166 162 162 165 162 150 153 147 143 172 183 183 183 183 181 182 180 182 198 210 216 227 227 223 219 214 214 213 208 210 212 208 209 210 206 201 180 120 141 159 166 202 228 225 304 302 193 205 229 236 232 228 224 220 214 208 205 205 209 209 207 204 196 187
113 124 118 109 105 102 96 91 85 78 73 66 71 72 71 80 55 46 56 72 129 164 180 182 170 165 167 175 177 165 166 168 151 167 184 187 189 192 193 194 189 182 188 199 206 224 230 227 223 217 213 208 202 205 204 194 193 196 190 187 181 158 170 183 184 224 240 226 257 253 185 206 239 239 244 240 227 223 217 213 211 209 210 210 209 208 204 196
135 129 117 107 103 100 91 86 79 76 79 83 96 99 86 76 57 49 49 51 108 164 171 169 169 173 176 182 185 182 181 186 181 180 188 192 194 199 202 200 195 190 186 193 203 212 216 221 220 216 214 209 204 205 207 203 198 196 196 199 199 195 196 196 205 220 146 135 180 189 186 218 232 230 240 232 222 222 218 216 215 213 213 212 210 209 205 200
142 132 118 107 103 98 90 85 83 83 92 96 101 99 81 61 44 44 47 54 99 143 156 157 165 176 183 187 190 193 194 192 190 186 189 192 195 201 205 203 199 198 201 204 202 210 219 223 217 212 212 211 208 205 206 208 207 204 205 206 207 210 215 227 214 190 124 108 139 183 209 240 228 238 252 241 220 213 212 215 215 215 214 213 213 212 208 204
148 137 122 110 103 99 91 88 90 93 100 105 100 89 76 63 50 47 50 64 102 127 138 145 158 172 179 183 188 190 194 198 187 175 175 183 194 204 207 209 211 213 218 219 208 200 215 209 189 201 207 209 209 208 205 203 203 203 201 203 211 217 220 218 170 149 148 150 184 203 234 253 242 253 257 247 227 207 205 210 212 215 215 213 213 212 211 209
152 142 127 115 106 103 95 92 97 98 102 109 102 90 78 71 63 56 54 64 102 126 129 137 155 168 168 169 177 183 187 188 173 164 158 157 181 206 212 218 222 224 227 227 226 231 235 222 189 187 201 202 197 204 207 209 212 205 201 207 212 217 223 218 178 149 181 199 196 202 232 246 235 247 246 230 219 205 203 211 214 216 214 210 209 210 212 212
156 149 135 123 113 107 100 98 103 102 103 107 101 93 84 77 73 68 62 57 83 133 147 155 161 167 169 163 163 177 184 179 168 164 156 143 149 194 201 203 211 220 227 225 227 231 236 239 203 185 197 198 190 196 206 212 216 214 215 217 211 203 206 200 183 185 197 193 177 194 226 242 231 233 239 226 215 206 199 210 222 219 208 202 202 207 211 211
161 154 141 132 121 114 108 104 107 110 112 109 100 92 85 80 75 71 71 65 70 133 195 201 173 164 174 173 161 172 183 183 179 172 161 150 135 149 159 149 186 215 222 218 220 217 213 226 201 188 198 197 193 199 206 209 210 210 218 219 211 206 200 193 191 202 198 193 205 183 202 239 231 230 235 236 226 209 203 213 224 218 201 194 196 204 210 210
162 154 147 140 129 123 118 111 114 117 115 106 97 94 89 82 77 70 69 72 71 97 165 192 172 159 162 171 169 172 179 182 183 175 168 166 151 134 143 128 133 210 211 208 214 216 214 223 221 188 192 195 196 202 207 208 205 203 206 208 206 204 199 194 196 202 196 175 189 201 208 224 219 220 224 228 214 197 205 219 224 211 194 190 193 201 209 214
160 156 156 149 138 135 127 120 125 122 113 106 97 95 92 85 86 77 70 73 72 82 91 122 162 157 152 166 172 175 178 180 182 178 173 175 168 139 145 136 104 166 193 194 201 214 219 223 233 227 205 200 202 204 207 211 208 203 205 207 205 199 192 190 194 200 203 185 180 213 271 216 210 213 214 211 192 188 201 213 218 207 193 192 194 198 205 213
163 164 166 156 147 149 138 126 132 127 116 111 99 92 91 91 98 88 79 83 77 80 95 110 151 157 156 164 169 175 179 177 179 180 176 177 176 158 154 155 98 99 167 187 193 209 217 220 233 242 238 216 210 206 204 209 210 206 209 214 211 205 199 198 192 189 196 203 204 214 255 255 226 217 207 200 195 192 193 199 208 205 195 194 197 201 206 210
171 172 173 165 156 158 148 134 137 133 121 116 107 99 91 86 96 93 78 73 58 61 98 117 141 156 161 163 164 168 170 168 172 177 174 177 182 176 168 170 111 65 117 180 185 200 209 217 230 236 230 212 210 207 203 206 207 207 211 215 213 208 206 209 214 207 200 198 193 197 225 232 226 218 206 201 204 201 190 191 198 198 193 192 197 205 210 213
182 183 184 181 169 162 155 142 138 136 128 124 124 116 97 82 85 86 58 29 32 81 119 140 150 159 167 170 170 168 163 157 160 165 166 174 183 186 186 186 168 28 37 181 190 194 201 214 216 200 179 184 196 199 198 201 204 207 212 213 210 208 206 210 216 211 204 199 197 199 216 215 220 219 204 200 205 205 196 193 194 194 192 191 195 203 211 217
193 195 191 184 173 161 159 151 142 141 138 130 127 121 108 94 85 81 63 42 66 97 115 143 143 154 170 175 179 180 176 169 164 165 168 174 180 187 200 214 233 306 337 209 202 199 204 219 211 196 190 183 181 186 187 189 196 204 211 210 207 204 202 206 205 197 197 205 205 205 211 210 215 217 207 201 203 206 203 197 196 197 198 199 199 201 208 215
197 196 187 182 180 170 166 161 151 155 156 145 130 115 101 100 98 100 103 90 91 94 95 108 97 109 177 181 185 186 185 181 175 174 176 177 179 185 203 229 245 271 301 16 151 191 208 216 208 206 209 199 185 186 190 187 187 196 206 208 207 204 204 208 206 198 201 209 208 211 220 224 220 218 215 206 202 205 205 198 195 196 198 201 204 204 207 215
195 194 185 184 193 189 178 169 165 170 174 174 155 118 103 117 114 114 124 117 108 91 79 103 79 45 169 187 192 181 174 177 175 171 169 169 174 182 204 238 246 258 272 277 102 160 199 196 199 208 211 203 188 180 185 189 187 190 199 202 203 203 204 208 211 208 205 205 209 214 219 229 233 226 227 217 208 206 202 194 192 193 193 196 200 203 208 217
196 194 186 187 193 187 174 170 175 182 183 187 172 120 99 133 147 138 135 137 132 77 71 126 41 17 131 161 182 175 165 166 165 162 160 159 167 182 206 238 243 243 241 197 119 140 166 144 154 183 198 201 196 181 180 185 186 187 189 191 194 199 202 207 214 217 209 206 216 218 215 223 227 220 226 222 212 206 198 190 190 190 193 200 205 212 216 219
201 198 196 199 200 188 175 164 160 173 181 186 178 145 94 15 200 187 177 219 228 190 140 168 181 151 132 121 154 164 153 153 153 151 154 156 163 185 200 217 224 218 216 200 156 135 124 109 110 119 152 188 197 190 182 181 183 185 185 186 189 195 199 202 209 216 210 208 217 220 216 221 222 218 224 213 204 203 199 193 190 186 194 208 219 226 225 220
208 208 208 207 200 187 176 164 158 171 174 179 200 204 231 315 156 171 175 118 134 189 191 187 191 179 156 97 132 142 123 125 138 134 138 148 152 164 173 182 198 201 205 207 196 173 128 91 89 99 113 139 176 186 183 180 182 185 186 188 190 192 196 198 199 204 205 205 211 214 214 218 215 206 207 203 201 203 200 195 193 192 201 215 223 229 228 222
211 212 211 208 199 188 183 180 177 181 179 187 221 212 215 239 157 165 222 241 345 326 195 167 168 185 190 252 182 135 98 81 101 107 106 121 123 121 125 119 158 191 193 198 202 202 208 245 328 54 93 96 116 165 175 174 180 182 181 184 189 191 193 196 195 195 198 203 207 206 207 212 210 201 199 201 202 201 198 195 197 201 207 210 213 217 218 217
213 211 208 207 201 191 190 186 181 186 191 196 208 202 207 227 224 263 296 296 314 307 184 150 143 174 215 240 182 164 92 50 80 93 86 86 81 74 78 79 72 135 180 183 191 202 219 242 271 289 109 100 107 138 161 163 169 174 170 178 187 190 191 195 198 195 196 204 210 208 209 214 211 202 198 199 199 196 193 191 192 200 208 202 186 174 180 197
Height
3139 3139 3139 3138 3138 3138 3137 3137 3137 3137 3137 3137 3137 3137 3137 3137 3137 3137 3138 3138 3139 3140 3141 3142 3142 3143 3143 3144 3144 3145 3146 3147 3148 3150 3152 3153 3152 3153 3154 3155 3156 3158 3159 3160 3162 3163 3165 3166 3168 3170 3171 3172 3173 3174 3175 3175 3174 3174 3173 3173 3172 3171 3169 3167 3166 3166 3170 3173 3176 3179 3182 3184 3185 3186 3187 3188 3189 3191 3192 3194 3195 3196 3196 3198 3200 3202 3203 3204
3138 3138 3138 3138 3137 3137 3136 3136 3136 3136 3136 3136 3136 3136 3136 3136 3136 3136 3136 3136 3137 3138 3139 3140 3141 3141 3142 3142 3143 3144 3145 3146 3147 3150 3151 3150 3151 3152 3154 3155 3156 3158 3158 3160 3161 3163 3165 3167 3168 3170 3171 3172 3173 3174 3175 3175 3174 3174 3173 3173 3172 3171 3170 3170 3170 3170 3172 3175 3177 3180 3182 3184 3186 3187 3188 3189 3190 3192 3193 3194 3195 3196 3197 3199 3201 3203 3204 3205
3138 3137 3137 3137 3136 3136 3135 3135 3135 3135 3135 3135 3135 3135 3135 3135 3135 3134 3135 3135 3135 3136 3137 3139 3140 3140 3141 3141 3142 3143 3144 3145 3147 3149 3148 3148 3150 3151 3153 3155 3156 3157 3158 3159 3160 3162 3164 3166 3168 3170 3170 3172 3173 3174 3175 3175 3174 3174 3174 3173 3173 3172 3172 3173 3173 3173 3174 3177 3179 3181 3183 3185 3187 3188 3189 3190 3191 3192 3194 3195 3196 3197 3198 3199 3202 3203 3204 3206
3137 3136 3136 3136 3135 3135 3135 3134 3134 3134 3134 3134 3134 3134 3134 3133 3133 3133 3133 3134 3134 3135 3136 3137 3138 3139 3139 3140 3141 3142 3143 3144 3146 3147 3146 3147 3149 3150 3152 3154 3156 3157 3157 3158 3159 3160 3162 3164 3166 3169 3170 3172 3173 3174 3175 3175 3174 3174 3174 3173 3173 3173 3173 3173 3173 3175 3176 3179 3181 3182 3184 3186 3187 3189 3190 3191 3192 3193 3195 3196 3198 3198 3199 3201 3202 3204 3205 3207
3136 3135 3135 3134 3134 3134 3133 3133 3133 3133 3133 3133 3133 3132 3132 3132 3132 3132 3132 3132 3133 3133 3134 3135 3136 3137 3138 3139 3140 3141 3142 3143 3144 3145 3145 3147 3148 3149 3152 3154 3155 3156 3157 3157 3158 3160 3161 3163 3165 3168 3170 3171 3173 3174 3175 3175 3174 3174 3174 3174 3174 3174 3174 3174 3175 3176 3178 3180 3182 3183 3185 3186 3188 3189 3191 3192 3193 3195 3195 3197 3198 3199 3201 3203 3204 3205 3206 3208
3135 3135 3134 3133 3133 3132 3132 3132 3131 3132 3131 3131 3131 3131 3131 3131 3131 3131 3131 3131 3131 3132 3133 3133 3134 3135 3136 3137 3139 3140 3141 3141 3142 3143 3144 3146 3147 3148 3151 3153 3154 3155 3156 3157 3158 3160 3161 3163 3165 3167 3169 3171 3173 3174 3174 3174 3174 3175 3174 3174 3175 3175 3175 3176 3176 3178 3180 3182 3183 3184 3186 3188 3189 3190 3191 3193 3194 3195 3196 3197 3198 3199 3201 3204 3206 3207 3208 3209
3135 3134 3133 3132 3132 3131 3130 3130 3130 3130 3130 3130 3130 3130 3130 3129 3129 3130 3130 3130 3130 3130 3131 3132 3133 3134 3135 3136 3137 3138 3139 3140 3141 3142 3143 3145 3146 3148 3150 3151 3153 3154 3156 3157 3158 3160 3161 3163 3165 3167 3169 3171 3173 3173 3174 3174 3174 3175 3175 3175 3175 3175 3176 3177 3178 3179 3181 3183 3184 3186 3188 3189 3190 3191 3192 3193 3194 3195 3197 3198 3199 3200 3202 3205 3207 3208 3209 3211
3134 3133 3132 3131 3130 3130 3129 3129 3128 3128 3128 3128 3128 3128 3128 3128 3128 3128 3129 3129 3129 3129 3129 3130 3131 3132 3133 3134 3136 3137 3138 3139 3140 3141 3142 3144 3145 3147 3149 3150 3152 3154 3156 3157 3159 3160 3161 3163 3165 3167 3169 3171 3173 3173 3173 3174 3174 3175 3175 3175 3175 3176 3177 3177 3178 3180 3182 3183 3185 3187 3188 3190 3191 3192 3193 3194 3195 3196 3197 3198 3199 3201 3203 3205 3208 3209 3210 3212
3133 3132 3131 3130 3129 3128 3128 3127 3127 3126 3126 3127 3126 3126 3126 3127 3127 3127 3127 3127 3128 3128 3128 3129 3129 3130 3131 3133 3134 3135 3136 3137 3139 3140 3141 3143 3144 3146 3148 3149 3152 3153 3155 3157 3158 3160 3161 3163 3165 3167 3169 3171 3172 3172 3173 3174 3174 3175 3175 3175 3176 3176 3177 3178 3179 3180 3182 3184 3185 3187 3189 3190 3191 3192 3193 3194 3195 3196 3198 3199 3200 3202 3204 3206 3208 3210 3212 3213
3131 3131 3130 3129 3128 3127 3126 3126 3126 3125 3125 3125 3125 3125 3125 3125 3125 3125 3126 3126 3126 3126 3127 3127 3128 3129 3130 3131 3133 3134 3135 3136 3137 3138 3140 3141 3143 3146 3147 3149 3151 3153 3155 3157 3158 3159 3161 3163 3165 3167 3169 3171 3171 3172 3173 3173 3174 3175 3175 3176 3176 3177 3178 3179 3180 3181 3183 3184 3186 3187 3189 3190 3192 3193 3193 3194 3195 3197 3198 3200 3201 3202 3205 3207 3209 3211 3212 3214
3130 3129 3128 3128 3127 3126 3125 3125 3124 3124 3124 3123 3123 3123 3123 3123 3124 3124 3124 3125 3125 3125 3125 3126 3127 3127 3128 3130 3131 3132 3133 3134 3136 3137 3138 3140 3142 3145 3147 3149 3151 3153 3155 3156 3158 3159 3160 3163 3165 3167 3169 3170 3171 3172 3172 3173 3174 3175 3175 3176 3176 3177 3178 3179 3180 3181 3183 3184 3186 3187 3189 3190 3192 3193 3194 3195 3196 3197 3199 3200 3201 3203 3205 3207 3209 3211 3212 3214
3129 3128 3127 3126 3125 3124 3124 3123 3123 3123 3122 3122 3122 3121 3122 3122 3122 3122 3123 3123 3124 3124 3124 3125 3125 3126 3127 3129 3130 3130 3132 3133 3135 3136 3138 3139 3141 3143 3146 3148 3150 3152 3154 3156 3157 3159 3160 3162 3164 3166 3168 3170 3171 3171 3172 3173 3174 3175 3175 3176 3176 3177 3179 3180 3180 3181 3183 3184 3185 3187 3189 3190 3191 3193 3195 3196 3196 3197 3199 3200 3202 3203 3205 3208 3209 3211 3213 3214
3127 3126 3126 3125 3124 3123 3122 3122 3122 3121 3120 3120 3120 3120 3120 3120 3120 3120 3121 3122 3122 3123 3123 3123 3124 3125 3126 3127 3128 3129 3131 3133 3134 3135 3137 3138 3140 3142 3144 3147 3149 3151 3152 3154 3157 3158 3160 3162 3164 3166 3168 3169 3170 3171 3171 3172 3173 3174 3175 3176 3176 3177 3178 3179 3180 3181 3183 3184 3185 3186 3188 3189 3190 3193 3194 3196 3197 3198 3199 3200 3202 3204 3206 3208 3210 3211 3213 3214
3126 3125 3124 3123 3122 3121 3121 3120 3120 3119 3119 3118 3118 3118 3118 3118 3119 3119 3119 3120 3121 3122 3122 3122 3123 3124 3125 3126 3127 3129 3130 3131 3133 3134 3136 3138 3139 3141 3143 3145 3148 3149 3151 3153 3155 3157 3160 3163 3164 3166 3168 3168 3169 3170 3171 3172 3173 3174 3175 3176 3176 3177 3178 3179 3180 3181 3182 3183 3185 3186 3187 3188 3190 3192 3194 3196 3197 3198 3199 3201 3203 3204 3206 3208 3210 3211 3213 3215
3124 3124 3123 3122 3121 3120 3119 3119 3118 3118 3117 3117 3117 3117 3116 3117 3117 3117 3118 3119 3119 3120 3121 3121 3122 3122 3124 3125 3126 3128 3129 3130 3132 3133 3135 3137 3139 3141 3143 3145 3147 3148 3150 3152 3154 3156 3159 3162 3164 3166 3167 3168 3169 3170 3170 3171 3172 3173 3174 3175 3176 3177 3178 3178 3179 3180 3181 3183 3184 3185 3187 3188 3189 3192 3194 3196 3197 3199 3200 3201 3203 3205 3206 3208 3210 3212 3213 3215
3123 3123 3122 3121 3120 3119 3118 3118 3117 3117 3116 3116 3116 3115 3115 3115 3115 3116 3116 3117 3118 3119 3119 3120 3120 3121 3123 3124 3125 3126 3127 3129 3130 3133 3134 3136 3137 3140 3142 3144 3146 3148 3150 3152 3154 3155 3158 3161 3163 3165 3166 3167 3168 3169 3170 3171 3172 3172 3173 3174 3175 3176 3177 3178 3179 3179 3180 3181 3183 3184 3186 3187 3188 3191 3193 3195 3197 3199 3200 3201 3203 3205 3207 3208 3210 3212 3213 3215
3122 3121 3121 3120 3119 3118 3117 3117 3116 3116 3115 3115 3115 3114 3114 3114 3114 3114 3115 3116 3116 3117 3118 3118 3119 3120 3121 3122 3123 3124 3126 3127 3129 3132 3133 3135 3137 3139 3141 3143 3145 3147 3150 3152 3153 3155 3157 3160 3162 3164 3165 3167 3167 3169 3170 3170 3171 3172 3172 3174 3175 3176 3177 3178 3178 3178 3179 3180 3182 3183 3185 3186 3188 3190 3192 3195 3197 3199 3200 3201 3203 3205 3207 3208 3210 3212 3213 3215
3121 3120 3119 3119 3118 3117 3117 3116 3116 3115 3115 3115 3114 3114 3113 3113 3113 3113 3114 3114 3115 3116 3116 3117 3118 3119 3120 3121 3122 3123 3125 3127 3129 3130 3132 3134 3136 3138 3140 3143 3145 3147 3149 3151 3153 3155 3157 3159 3161 3163 3164 3165 3166 3167 3169 3170 3170 3171 3172 3173 3174 3175 3176 3177 3177 3178 3178 3179 3181 3183 3184 3186 3187 3189 3191 3194 3196 3198 3200 3201 3203 3205 3207 3208 3210 3212 3213 3215
3120 3119 3118 3117 3117 3116 3116 3116 3115 3115 3114 3114 3114 3113 3113 3112 3112 3112 3112 3113 3114 3114 3115 3116 3116 3118 3118 3119 3121 3122 3124 3126 3128 3130 3131 3133 3136 3137 3139 3142 3144 3146 3148 3150 3152 3154 3156 3158 3160 3162 3163 3164 3165 3167 3169 3170 3170 3171 3172 3173 3174 3175 3176 3177 3177 3177 3178 3179 3180 3182 3183 3185 3186 3188 3190 3193 3196 3198 3199 3201 3203 3205 3207 3208 3209 3211 3213 3215
3119 3118 3117 3116 3116 3116 3115 3115 3115 3114 3114 3114 3113 3113 3113 3112 3112 3112 3112 3112 3112 3113 3114 3114 3115 3116 3117 3119 3120 3122 3124 3126 3127 3129 3130 3132 3134 3137 3139 3141 3143 3145 3148 3150 3152 3154 3156 3158 3159 3160 3162 3164 3166 3168 3169 3169 3170 3171 3172 3173 3174 3175 3176 3177 3177 3178 3178 3179 3180 3181 3183 3185 3186 3187 3189 3192 3195 3197 3198 3200 3201 3204 3206 3207 3209 3211 3213 3215
3118 3117 3116 3115 3115 3115 3115 3114 3114 3114 3114 3113 3113 3113 3112 3112 3111 3111 3111 3110 3111 3111 3112 3113 3115 3116 3117 3118 3120 3121 3124 3126 3127 3128 3130 3131 3133 3136 3138 3139 3141 3143 3147 3150 3152 3154 3156 3157 3158 3161 3163 3165 3167 3168 3169 3169 3169 3171 3172 3173 3174 3175 3176 3177 3177 3178 3179 3179 3180 3181 3183 3184 3186 3187 3189 3191 3193 3195 3197 3199 3201 3203 3205 3207 3209 3211 3213 3215
3117 3116 3115 3115 3114 3114 3114 3114 3114 3114 3114 3113 3113 3112 3111 3111 3111 3110 3110 3110 3110 3110 3111 3112 3114 3115 3116 3118 3119 3121 3124 3125 3126 3128 3129 3130 3132 3134 3136 3138 3141 3143 3145 3149 3151 3153 3155 3155 3158 3162 3164 3165 3166 3167 3168 3169 3169 3171 3172 3173 3174 3175 3176 3177 3177 3178 3179 3179 3180 3181 3182 3184 3185 3187 3189 3191 3192 3194 3196 3198 3200 3202 3204 3206 3208 3210 3212 3213
3116 3115 3114 3114 3114 3114 3114 3114 3113 3113 3113 3113 3112 3112 3111 3111 3110 3110 3110 3109 3110 3110 3111 3112 3113 3114 3116 3118 3120 3122 3124 3125 3126 3127 3129 3130 3132 3133 3135 3138 3141 3143 3145 3147 3150 3152 3154 3155 3158 3162 3163 3164 3165 3166 3168 3168 3169 3170 3171 3173 3174 3174 3175 3176 3177 3178 3179 3180 3180 3181 3183 3184 3185 3186 3188 3189 3191 3193 3195 3197 3199 3201 3203 3206 3208 3210 3211 3213
3115 3114 3114 3113 3113 3113 3113 3113 3113 3113 3113 3113 3112 3112 3111 3111 3111 3110 3110 3110 3110 3110 3110 3111 3113 3114 3116 3118 3120 3123 3124 3125 3126 3127 3128 3130 3131 3133 3135 3138 3141 3143 3145 3147 3149 3152 3153 3155 3158 3161 3162 3164 3165 3166 3167 3168 3169 3170 3171 3172 3173 3174 3175 3175 3176 3177 3178 3180 3181 3182 3183 3184 3184 3185 3186 3188 3190 3192 3194 3196 3198 3200 3202 3205 3207 3209 3211 3212
3114 3114 3113 3113 3113 3113 3113 3113 3113 3113 3113 3113 3113 3112 3112 3112 3111 3111 3110 3110 3110 3110 3111 3112 3113 3115 3117 3119 3121 3122 3124 3126 3127 3128 3129 3130 3132 3133 3135 3138 3141 3143 3144 3147 3149 3152 3154 3155 3158 3160 3161 3163 3164 3165 3166 3168 3169 3170 3170 3172 3173 3174 3175 3175 3176 3177 3178 3179 3180 3181 3182 3183 3184 3184 3185 3187 3189 3191 3193 3195 3197 3199 3201 3203 3205 3207 3210 3212
3114 3113 3113 3113 3113 3113 3113 3113 3113 3113 3113 3113 3113 3113 3112 3112 3112 3111 3111 3111 3111 3111 3112 3113 3115 3116 3117 3119 3121 3122 3125 3126 3127 3128 3130 3131 3132 3134 3136 3137 3140 3142 3144 3147 3149 3151 3153 3155 3157 3159 3161 3162 3162 3164 3166 3167 3169 3170 3170 3172 3173 3174 3174 3175 3176 3177 3177 3178 3179 3180 3181 3182 3183 3183 3184 3186 3188 3190 3192 3194 3196 3198 3200 3202 3204 3206 3208 3211
3113 3113 3113 3113 3113 3112 3112 3113 3113 3113 3113 3113 3113 3113 3113 3112 3112 3112 3112 3112 3112 3113 3113 3114 3115 3117 3118 3119 3121 3123 3125 3125 3127 3129 3130 3131 3132 3134 3136 3137 3139 3142 3143 3146 3149 3150 3152 3154 3156 3158 3160 3161 3161 3163 3165 3167 3168 3169 3170 3172 3172 3173 3174 3175 3176 3177 3177 3177 3178 3179 3180 3181 3181 3182 3183 3185 3186 3188 3190 3192 3195 3197 3199 3201 3203 3205 3207 3210
3113 3113 3113 3112 3112 3112 3112 3112 3113 3113 3113 3113 3113 3113 3113 3113 3112 3112 3112 3113 3113 3113 3114 3115 3116 3117 3118 3120 3121 3123 3124 3125 3127 3129 3130 3132 3133 3134 3136 3138 3139 3142 3143 3146 3149 3150 3151 3154 3155 3157 3159 3159 3160 3162 3164 3166 3168 3169 3170 3171 3172 3173 3174 3174 3175 3176 3176 3177 3177 3178 3180 3180 3180 3180 3181 3183 3185 3186 3187 3190 3193 3196 3198 3200 3202 3204 3206 3209
3113 3113 3113 3112 3112 3112 3112 3112 3113 3113 3113 3113 3113 3113 3113 3113 3113 3112 3112 3113 3114 3114 3115 3116 3117 3118 3119 3120 3122 3123 3124 3125 3127 3128 3130 3132 3133 3135 3136 3138 3140 3142 3144 3146 3148 3149 3151 3153 3155 3156 3157 3158 3160 3162 3164 3166 3167 3168 3170 3171 3172 3172 3173 3174 3174 3175 3176 3176 3176 3177 3178 3179 3178 3178 3179 3181 3182 3182 3185 3189 3192 3195 3197 3200 3202 3203 3205 3207
3113 3113 3113 3112 3112 3112 3112 3113 3113 3113 3114 3114 3114 3114 3114 3113 3113 3112 3113 3114 3115 3115 3116 3117 3118 3119 3119 3121 3122 3123 3124 3125 3127 3128 3130 3132 3133 3135 3136 3138 3140 3142 3144 3145 3147 3149 3150 3152 3153 3154 3156 3157 3160 3161 3163 3164 3165 3167 3169 3170 3171 3172 3173 3173 3174 3175 3175 3175 3175 3175 3176 3177 3177 3176 3177 3178 3178 3180 3184 3188 3190 3192 3195 3198 3200 3203 3204 3206
3113 3113 3113 3112 3112 3112 3113 3113 3114 3114 3114 3114 3114 3114 3114 3114 3113 3113 3114 3115 3115 3116 3117 3118 3118 3119 3120 3121 3123 3124 3125 3126 3127 3128 3130 3131 3133 3135 3136 3138 3139 3142 3143 3145 3146 3148 3149 3150 3151 3153 3154 3156 3159 3160 3161 3162 3163 3166 3168 3169 3171 3173 3173 3174 3175 3175 3175 3174 3174 3174 3175 3177 3176 3175 3176 3176 3177 3180 3184 3186 3188 3191 3193 3196 3199 3202 3204 3205
3114 3113 3113 3113 3113 3113 3114 3114 3115 3115 3115 3115 3115 3114 3114 3114 3114 3114 3115 3116 3116 3117 3117 3118 3119 3120 3121 3122 3123 3124 3125 3126 3127 3128 3130 3131 3133 3135 3136 3137 3139 3141 3143 3144 3145 3147 3147 3148 3150 3152 3153 3155 3157 3158 3159 3161 3162 3164 3166 3168 3171 3173 3174 3175 3175 3175 3173 3172 3173 3174 3175 3176 3175 3175 3175 3176 3177 3179 3182 3184 3187 3190 3192 3195 3198 3200 3203 3205
3114 3114 3114 3114 3114 3114 3115 3115 3115 3115 3115 3115 3115 3115 3115 3115 3115 3116 3116 3116 3116 3116 3117 3118 3119 3120 3121 3123 3124 3125 3126 3127 3128 3129 3130 3131 3133 3135 3136 3137 3139 3140 3141 3143 3145 3146 3146 3147 3148 3150 3151 3153 3154 3156 3156 3158 3160 3162 3165 3167 3169 3171 3174 3176 3175 3174 3173 3172 3172 3174 3175 3175 3174 3174 3174 3175 3176 3177 3180 3183 3185 3188 3190 3193 3196 3199 3201 3204
3115 3115 3115 3115 3115 3115 3116 3116 3116 3116 3116 3116 3115 3116 3115 3115 3116 3117 3116 3116 3116 3116 3116 3117 3119 3120 3121 3123 3124 3125 3126 3127 3128 3129 3130 3131 3133 3134 3136 3137 3138 3140 3141 3142 3144 3144 3145 3145 3145 3147 3149 3150 3152 3154 3155 3157 3159 3162 3164 3166 3168 3168 3170 3172 3171 3171 3170 3170 3172 3174 3174 3173 3172 3172 3172 3173 3174 3175 3178 3180 3183 3186 3188 3191 3193 3196 3199 3202
3115 3115 3116 3116 3116 3116 3116 3116 3116 3116 3116 3116 3116 3116 3116 3116 3117 3117 3116 3116 3116 3116 3117 3118 3119 3120 3121 3122 3123 3124 3125 3127 3127 3128 3130 3131 3132 3134 3135 3137 3138 3139 3140 3141 3142 3143 3143 3143 3143 3145 3147 3149 3151 3153 3155 3158 3159 3161 3162 3165 3166 3166 3167 3168 3168 3168 3169 3170 3173 3173 3173 3171 3171 3172 3171 3172 3173 3174 3176 3178 3180 3183 3185 3187 3190 3193 3196 3200
3116 3116 3116 3116 3117 3117 3117 3117 3117 3117 3117 3117 3117 3117 3117 3117 3117 3117 3117 3116 3116 3117 3117 3118 3119 3120 3121 3122 3123 3124 3125 3126 3127 3128 3129 3131 3132 3133 3134 3136 3137 3138 3139 3140 3141 3141 3142 3142 3142 3144 3146 3148 3151 3153 3154 3156 3157 3158 3160 3162 3164 3165 3167 3167 3168 3169 3169 3170 3172 3173 3172 3171 3171 3171 3171 3171 3172 3173 3174 3176 3178 3180 3182 3184 3188 3191 3194 3197
3116 3116 3117 3117 3117 3117 3118 3118 3118 3118 3118 3118 3117 3117 3118 3118 3118 3118 3117 3117 3117 3117 3118 3119 3119 3120 3121 3122 3123 3124 3125 3126 3127 3128 3129 3131 3132 3133 3134 3135 3136 3137 3138 3139 3140 3141 3141 3141 3141 3142 3144 3147 3150 3152 3154 3155 3156 3157 3158 3160 3163 3165 3166 3167 3168 3169 3169 3169 3171 3172 3171 3171 3171 3170 3169 3170 3171 3172 3173 3174 3176 3177 3179 3182 3186 3190 3193 3196
3116 3117 3117 3117 3118 3118 3118 3118 3119 3119 3119 3119 3118 3118 3119 3119 3119 3118 3118 3118 3118 3118 3118 3119 3119 3120 3121 3122 3123 3124 3125 3126 3127 3128 3129 3131 3132 3133 3134 3134 3135 3136 3136 3138 3139 3140 3141 3141 3141 3142 3143 3145 3148 3150 3151 3152 3154 3155 3157 3159 3161 3162 3163 3165 3167 3168 3168 3169 3169 3171 3171 3170 3169 3169 3168 3169 3170 3171 3172 3173 3174 3175 3176 3179 3184 3188 3191 3194
3116 3117 3117 3118 3118 3118 3119 3119 3119 3119 3119 3119 3119 3119 3119 3119 3119 3119 3119 3119 3119 3118 3119 3119 3119 3120 3121 3122 3123 3124 3125 3126 3127 3128 3129 3130 3132 3133 3133 3134 3134 3135 3135 3137 3138 3139 3140 3140 3140 3141 3142 3144 3146 3147 3148 3149 3151 3154 3156 3157 3158 3160 3161 3163 3164 3165 3165 3167 3167 3169 3169 3167 3166 3167 3168 3169 3170 3170 3171 3172 3173 3174 3175 3178 3183 3187 3190 3193
3117 3117 3118 3118 3118 3119 3119 3119 3120 3120 3120 3120 3120 3120 3120 3120 3120 3120 3120 3120 3119 3119 3119 3119 3119 3120 3121 3122 3123 3124 3125 3126 3126 3127 3129 3130 3132 3133 3133 3134 3134 3134 3134 3135 3136 3137 3139 3139 3139 3140 3141 3142 3142 3143 3145 3147 3149 3151 3153 3153 3155 3158 3160 3161 3163 3163 3163 3164 3165 3166 3165 3164 3163 3165 3166 3168 3169 3170 3171 3172 3172 3173 3175 3178 3182 3186 3189 3191
3117 3117 3118 3118 3119 3119 3120 3120 3120 3120 3120 3120 3120 3120 3120 3121 3121 3121 3121 3120 3120 3120 3119 3119 3119 3120 3121 3122 3123 3124 3125 3125 3126 3127 3128 3130 3131 3132 3133 3133 3133 3133 3134 3134 3135 3136 3137 3138 3139 3139 3140 3140 3140 3142 3144 3146 3148 3150 3150 3151 3153 3156 3158 3159 3161 3162 3162 3162 3163 3163 3162 3162 3162 3164 3165 3167 3168 3169 3170 3171 3172 3173 3175 3177 3181 3185 3188 3190
3117 3117 3118 3118 3119 3119 3120 3120 3120 3120 3120 3121 3121 3121 3121 3121 3121 3122 3122 3121 3121 3121 3120 3120 3120 3121 3121 3122 3123 3124 3124 3125 3126 3127 3128 3129 3131 3132 3133 3133 3133 3133 3133 3134 3134 3135 3136 3137 3137 3138 3138 3139 3139 3141 3143 3145 3147 3148 3149 3150 3152 3154 3155 3156 3157 3159 3161 3162 3162 3162 3162 3161 3162 3163 3164 3166 3167 3168 3169 3170 3171 3173 3174 3177 3180 3183 3186 3188
3117 3117 3118 3118 3119 3119 3120 3120 3120 3121 3121 3121 3121 3122 3122 3122 3122 3122 3122 3122 3122 3122 3122 3121 3121 3121 3122 3122 3123 3123 3124 3125 3126 3127 3128 3129 3130 3131 3132 3133 3133 3133 3133 3133 3133 3134 3135 3136 3136 3137 3137 3138 3138 3140 3142 3143 3145 3146 3147 3148 3150 3151 3153 3155 3156 3158 3159 3160 3161 3162 3161 3161 3161 3162 3163 3165 3166 3167 3168 3170 3171 3173 3174 3176 3178 3181 3183 3186
3116 3117 3118 3118 3119 3119 3120 3120 3120 3121 3121 3121 3122 3122 3122 3122 3122 3123 3123 3123 3122 3122 3122 3122 3122 3122 3122 3123 3123 3124 3124 3126 3127 3127 3128 3129 3130 3131 3131 3132 3133 3133 3133 3133 3133 3133 3134 3134 3135 3136 3136 3137 3138 3139 3140 3141 3142 3143 3145 3146 3148 3150 3152 3154 3155 3157 3157 3158 3159 3160 3160 3160 3161 3161 3162 3164 3165 3166 3168 3170 3171 3173 3174 3175 3177 3179 3181 3183
3116 3117 3118 3118 3119 3119 3120 3120 3120 3121 3121 3121 3122 3122 3122 3123 3123 3123 3123 3123 3123 3123 3122 3122 3122 3123 3123 3123 3124 3124 3125 3126 3127 3127 3128 3129 3130 3130 3131 3132 3132 3133 3133 3132 3132 3132 3133 3133 3134 3134 3134 3134 3135 3135 3136 3138 3140 3142 3143 3145 3147 3149 3151 3153 3154 3155 3156 3157 3158 3159 3159 3159 3160 3161 3162 3163 3164 3166 3167 3169 3171 3172 3174 3175 3176 3178 3179 3181
3116 3117 3117 3118 3118 3119 3119 3120 3120 3121 3121 3121 3122 3122 3123 3123 3123 3123 3123 3123 3123 3123 3123 3123 3123 3123 3123 3124 3124 3124 3125 3125 3126 3127 3128 3129 3130 3130 3131 3131 3132 3132 3133 3132 3132 3132 3132 3132 3132 3133 3133 3133 3133 3133 3135 3137 3139 3141 3143 3144 3146 3148 3150 3152 3153 3153 3154 3156 3157 3157 3158 3159 3160 3160 3161 3162 3163 3164 3166 3169 3170 3172 3173 3174 3176 3177 3178 3179
3115 3116 3117 3118 3118 3119 3119 3120 3120 3120 3121 3121 3122 3122 3123 3123 3123 3123 3124 3124 3124 3124 3124 3124 3124 3123 3124 3124 3124 3125 3125 3126 3126 3127 3128 3128 3129 3130 3130 3131 3131 3132 3132 3133 3132 3132 3131 3131 3131 3132 3132 3133 3133 3134 3135 3137 3139 3141 3142 3144 3146 3147 3149 3150 3151 3152 3154 3155 3155 3156 3157 3158 3159 3160 3160 3161 3162 3163 3166 3168 3169 3171 3172 3174 3175 3176 3177 3178
3115 3116 3117 3117 3118 3118 3119 3120 3120 3120 3121 3121 3122 3122 3123 3123 3123 3124 3124 3124 3124 3124 3124 3124 3124 3124 3124 3124 3124 3125 3125 3126 3126 3127 3128 3128 3129 3129 3130 3131 3131 3131 3132 3133 3132 3132 3132 3131 3131 3131 3132 3133 3133 3134 3135 3137 3139 3140 3142 3143 3145 3147 3148 3149 3150 3152 3153 3154 3154 3155 3157 3157 3158 3159 3159 3160 3161 3163 3165 3167 3168 3170 3171 3173 3173 3174 3176 3177
3114 3115 3116 3117 3118 3118 3119 3119 3120 3120 3121 3121 3122 3122 3123 3123 3123 3124 3124 3124 3124 3124 3125 3125 3125 3124 3124 3125 3125 3125 3125 3126 3126 3127 3128 3128 3128 3129 3130 3130 3130 3131 3131 3132 3132 3132 3132 3132 3132 3132 3132 3132 3133 3134 3135 3136 3138 3140 3141 3143 3144 3145 3147 3148 3150 3151 3152 3153 3154 3155 3156 3156 3158 3158 3159 3160 3161 3163 3165 3167 3168 3169 3171 3171 3172 3173 3174 3175
3114 3115 3116 3116 3117 3118 3119 3119 3120 3120 3121 3121 3122 3122 3123 3123 3123 3123 3124 3124 3124 3124 3125 3125 3125 3125 3125 3125 3125 3126 3126 3126 3127 3127 3127 3128 3128 3129 3129 3129 3129 3130 3130 3131 3132 3133 3133 3133 3133 3133 3133 3133 3133 3134 3135 3136 3137 3139 3140 3142 3143 3144 3146 3147 3148 3150 3151 3151 3153 3154 3154 3155 3156 3158 3158 3159 3160 3162 3164 3166 3168 3169 3170 3170 3171 3171 3172 3173
3113 3114 3115 3116 3117 3118 3119 3119 3120 3121 3121 3122 3122 3122 3123 3123 3123 3123 3123 3124 3124 3124 3125 3125 3125 3125 3125 3125 3126 3126 3126 3127 3127 3127 3128 3128 3128 3128 3129 3129 3129 3129 3129 3130 3131 3132 3132 3132 3133 3134 3133 3134 3134 3135 3136 3137 3138 3139 3139 3140 3142 3143 3145 3146 3147 3148 3150 3150 3151 3152 3153 3154 3155 3156 3157 3158 3159 3161 3164 3166 3167 3168 3168 3169 3169 3170 3171 3172
3112 3114 3115 3116 3117 3118 3118 3119 3120 3120 3121 3122 3122 3122 3123 3123 3123 3123 3123 3123 3124 3124 3124 3125 3125 3125 3126 3126 3126 3126 3127 3127 3127 3127 3128 3128 3128 3128 3128 3128 3128 3129 3129 3128 3129 3130 3131 3132 3134 3134 3135 3135 3135 3135 3136 3137 3138 3139 3140 3140 3141 3142 3143 3145 3146 3147 3148 3150 3150 3151 3152 3152 3153 3154 3155 3156 3158 3161 3163 3165 3166 3167 3167 3168 3169 3170 3170 3171